Snowfall_Accumulation
nan nan nan nan nan nan nan nan nan nan nan nan nan nan nan nan nan 0.0 0.0 0.0 0.0 0.0 0.0 0.0 0.0 0.0 0.0 0.0 0.4 0.0 0.3 0.3 0.6 1.6 2.8 1.4 5.1 0.8 0.3 0.0 0.1 0.4 2.4 6.3 2.6 4.6 5.3 0.0 0.0 0.4 0.2 0.0 0.0 0.0
nan nan nan nan nan nan nan nan nan nan nan nan nan nan nan nan nan nan 0.0 0.0 0.0 0.0 0.0 0.0 0.0 0.0 0.0 0.0 0.0 0.0 0.0 0.0 0.1 0.4 2.2 2.4 5.4 6.0 0.5 2.2 0.0 1.1 0.4 0.7 0.1 0.9 0.0 0.0 0.0 0.0 0.0 0.0 0.0 0.0
nan nan nan nan nan nan nan nan nan nan nan nan nan nan nan nan nan nan 0.0 0.0 0.0 0.3 0.0 0.0 0.0 0.0 0.0 0.0 0.0 0.1 0.2 0.0 0.0 0.0 0.3 1.1 2.7 0.5 4.8 0.7 0.3 0.0 0.0 0.4 0.1 0.0 0.0 0.0 0.0 0.0 0.0 0.0 0.0 0.0
nan nan nan nan nan nan nan nan nan nan nan nan nan nan nan nan nan nan 0.0 0.0 0.0 0.1 3.2 0.3 0.0 0.0 0.0 0.0 0.0 0.0 0.0 0.0 0.0 0.1 1.3 2.4 4.7 0.0 1.5 0.6 0.5 0.0 0.0 0.0 0.0 0.0 0.0 0.0 0.0 0.0 0.0 0.0 0.0 0.0
nan nan nan nan nan nan nan nan nan nan nan nan nan nan nan nan nan nan 0.0 0.0 0.0 0.0 1.6 0.4 0.0 0.0 0.0 0.0 0.0 0.0 0.0 0.0 0.1 0.7 5.0 2.7 0.3 0.8 0.6 0.5 0.7 0.0 0.0 0.6 0.5 0.0 0.0 0.0 0.0 0.0 0.0 0.0 0.0 0.0
nan nan nan nan nan nan nan nan nan nan nan nan nan nan nan nan nan 0.0 0.0 0.0 0.0 0.0 0.4 1.9 0.0 0.0 0.0 0.0 0.0 0.0 0.0 0.0 0.0 0.1 2.5 0.2 0.0 0.3 5.8 0.8 0.0 0.0 0.0 0.0 0.0 0.0 0.0 0.0 0.0 0.0 0.0 0.0 0.0 0.0
nan nan nan nan nan nan nan nan nan nan nan nan nan nan nan nan 0.0 0.0 0.0 0.0 nan 0.0 0.5 2.1 0.7 0.2 0.0 0.0 0.0 0.0 0.0 0.0 0.0 0.2 0.7 0.4 0.3 0.0 2.6 1.2 0.0 0.0 0.0 0.0 0.0 0.0 0.0 0.0 0.0 0.0 0.0 0.0 0.0 0.0
nan nan nan nan nan nan nan nan nan nan nan nan nan nan nan nan nan 0.0 0.0 nan nan 0.0 0.2 2.1 2.0 0.9 0.0 0.5 1.2 0.0 0.3 0.3 0.1 0.0 0.8 0.7 0.3 0.9 1.2 0.0 0.0 0.0 0.0 0.0 0.0 0.0 0.0 0.0 0.0 0.0 0.0 0.0 0.0 0.0
nan nan nan nan nan nan nan nan nan nan nan nan nan nan 0.0 0.0 0.2 0.0 nan nan 0.0 0.0 0.6 6.0 2.9 5.7 0.0 0.2 0.8 0.5 0.1 2.3 0.1 2.0 0.9 0.4 1.0 1.4 0.0 0.0 0.0 0.0 0.0 0.0 0.0 0.0 0.0 0.0 0.0 0.0 0.0 0.0 0.1 0.6
nan nan nan nan nan nan nan nan nan nan nan nan 0.0 0.0 0.8 0.4 nan nan 0.0 0.4 0.4 0.5 0.4 2.4 0.3 1.7 0.0 0.9 1.5 1.0 1.1 2.6 2.7 2.1 0.0 2.5 0.6 0.0 0.0 0.0 0.0 0.0 0.0 0.0 0.0 0.0 0.0 0.0 0.0 0.0 0.1 0.0 0.2 0.1
nan nan nan nan nan nan nan nan nan nan nan 0.1 0.6 0.6 0.0 nan 0.0 0.2 0.8 0.9 0.4 1.9 0.3 0.6 0.5 0.5 0.2 1.9 2.5 1.2 4.1 3.6 5.4 1.2 2.9 2.5 1.3 0.0 0.0 0.0 0.0 0.0 0.0 0.0 0.0 0.0 0.0 0.0 0.1 0.4 0.2 0.0 0.1 0.1
nan nan nan nan nan nan nan nan nan 0.0 0.0 0.0 0.1 0.0 0.0 0.0 0.7 2.3 4.8 3.2 1.5 1.2 0.8 1.9 0.9 0.2 1.0 0.0 0.8 3.1 3.7 3.6 4.8 0.5 7.3 4.0 0.5 0.0 0.0 0.0 0.0 0.0 0.0 0.0 0.0 0.0 0.0 0.0 0.0 0.0 0.0 0.1 0.2 0.2
nan nan nan nan nan nan nan nan nan nan nan 0.0 0.4 0.8 0.3 5.3 26.2 8.7 7.2 5.4 8.3 2.2 3.5 3.3 8.2 1.1 1.1 0.4 3.7 2.7 8.9 8.2 0.9 8.6 1.9 1.4 0.2 0.1 0.1 0.0 0.0 0.0 0.0 0.0 0.0 0.0 0.0 0.0 0.0 0.1 0.4 0.2 1.3 0.3
nan nan nan nan nan nan nan nan nan 0.0 0.0 0.7 3.8 29.2 9.0 12.1 5.0 4.1 2.6 3.4 3.6 3.1 2.6 1.8 3.3 2.6 3.9 4.4 4.9 10.5 5.0 2.4 9.2 6.8 4.4 0.8 0.4 0.6 0.2 0.0 0.0 0.0 0.8 0.2 0.0 0.0 0.2 0.3 0.3 1.3 2.6 3.4 2.5 0.3
nan nan nan nan nan nan nan nan nan 0.0 0.1 1.1 2.2 24.2 7.9 3.6 3.4 3.9 3.4 2.8 1.5 1.2 1.6 2.7 2.8 0.6 6.7 10.5 5.7 5.4 10.6 10.0 4.9 5.6 3.2 1.7 0.6 0.3 0.1 0.0 0.0 0.1 1.5 0.8 0.0 0.2 2.1 1.5 0.6 0.3 0.6 0.3 0.3 2.7
nan nan 0.0 nan nan nan nan nan 0.0 0.0 0.9 1.4 2.2 5.9 4.3 8.1 13.3 11.2 7.4 6.6 0.8 1.3 1.7 1.8 4.2 7.4 7.6 6.9 6.1 7.1 5.1 5.2 6.2 2.8 1.3 0.3 0.2 0.1 0.1 0.1 0.1 0.1 0.1 0.1 0.0 0.1 0.5 1.4 1.6 0.1 0.4 1.0 4.1 4.1
nan 0.2 nan nan nan nan nan 0.0 0.4 0.3 2.7 3.0 10.1 3.1 5.2 5.8 7.9 6.7 4.4 1.9 0.1 3.3 13.2 4.1 7.0 4.0 2.1 5.5 3.9 2.3 9.8 4.3 2.1 0.7 0.4 0.0 0.1 0.1 0.1 0.1 1.8 0.2 0.1 0.1 0.1 0.1 0.1 0.3 0.7 0.7 1.2 0.1 0.2 0.5
0.1 0.0 nan nan nan nan 0.0 0.1 1.5 1.6 2.1 2.0 9.0 6.2 3.6 3.4 4.8 5.1 3.0 1.1 1.4 1.2 1.6 1.3 1.1 3.5 11.2 5.0 6.4 3.0 1.6 1.0 0.6 0.9 0.4 0.1 0.0 0.0 0.0 0.0 0.0 0.0 0.0 0.1 0.4 0.2 0.2 1.4 0.5 0.7 0.1 0.1 0.3 0.4
0.0 0.0 nan nan 0.0 0.5 1.1 1.0 0.4 1.8 3.5 1.9 1.7 1.8 2.2 3.9 2.3 1.2 3.2 2.3 0.9 0.6 2.0 2.7 6.0 3.7 5.0 1.9 3.6 3.2 2.6 1.4 0.6 0.2 0.2 0.1 0.1 0.1 0.0 0.0 0.0 0.0 0.1 0.1 0.1 0.5 0.4 0.1 0.4 0.4 0.5 0.8 1.4 1.5
nan nan nan nan nan 0.9 0.7 2.7 0.4 0.6 2.0 1.5 1.7 1.9 1.9 2.1 3.6 8.5 6.8 2.8 1.5 2.5 3.8 3.7 2.7 2.0 1.3 0.9 0.6 0.8 0.5 0.5 0.5 0.8 0.6 0.3 0.3 0.0 0.0 0.1 0.4 0.1 0.3 0.1 0.7 0.2 0.9 0.8 0.6 0.9 1.0 1.2 3.1 3.7
nan nan nan 0.0 0.7 0.0 1.0 1.2 0.7 0.9 0.8 1.0 1.1 1.0 3.7 3.4 5.4 7.9 6.0 1.7 10.1 3.6 2.1 1.3 3.2 0.7 0.2 0.5 0.4 0.4 0.3 0.2 0.3 1.1 1.0 0.6 0.4 0.4 0.4 0.5 0.6 0.6 0.9 1.1 3.9 2.1 1.7 2.1 1.1 1.1 9.5 11.3 7.3 5.7
0.0 nan 1.1 1.0 2.7 2.6 3.3 0.7 0.9 0.9 2.2 1.9 2.1 1.4 6.8 16.6 16.0 9.4 2.1 6.6 2.3 1.0 0.4 0.8 0.4 0.4 0.3 0.2 0.2 0.0 0.0 0.0 0.0 0.4 0.1 0.3 0.9 0.8 0.8 0.7 1.2 2.3 2.0 3.3 2.0 4.6 2.6 1.3 2.5 3.2 7.0 10.9 5.1 5.9
nan 1.0 3.7 3.4 7.5 13.3 22.7 0.8 4.8 0.8 6.8 5.3 3.4 4.1 8.0 7.0 3.9 1.0 7.9 0.8 1.2 0.3 0.3 0.3 0.4 0.2 0.2 0.2 0.1 0.0 0.0 0.0 0.5 0.8 1.3 1.0 0.7 1.8 1.9 1.4 1.8 5.0 3.8 1.4 1.2 2.6 3.4 2.7 3.9 10.3 7.6 8.2 8.4 17.8
nan 6.7 9.6 9.6 11.0 24.6 7.9 12.1 1.7 2.9 3.8 5.9 6.4 6.3 1.0 3.4 2.3 6.7 6.8 3.9 1.1 0.7 0.8 0.4 0.7 1.2 1.0 0.4 0.6 0.5 0.4 0.4 0.5 0.8 1.2 1.4 1.5 1.2 1.2 1.3 2.3 2.4 1.6 1.2 2.3 4.2 4.3 10.9 7.3 6.1 13.8 24.0 30.0 25.5
17.2 24.1 15.1 37.9 10.6 18.1 14.8 14.2 7.6 5.6 9.1 9.4 7.5 7.5 13.1 3.3 9.5 8.4 4.0 3.2 3.1 4.0 2.9 2.2 1.4 1.2 1.3 2.2 1.5 1.0 0.3 0.5 1.1 1.2 1.4 1.4 2.4 2.7 1.7 1.1 1.4 1.6 2.4 9.3 11.5 15.4 15.0 14.6 16.2 15.8 10.4 27.8 10.0 12.8
37.6 23.0 29.9 10.9 18.6 11.5 7.5 13.0 13.1 15.2 9.2 11.4 9.9 5.3 8.5 10.7 9.9 9.4 2.2 4.6 7.6 4.3 16.3 11.7 5.9 2.3 1.3 0.9 1.1 1.2 1.0 1.1 1.3 1.5 1.3 1.2 1.7 6.0 7.7 6.4 5.1 3.9 3.9 7.7 12.8 20.6 15.0 16.8 19.2 10.4 18.5 11.0 8.8 25.0
34.1 27.0 3.9 1.1 2.1 2.0 15.9 13.3 4.9 9.9 11.4 13.8 8.5 11.9 13.5 20.7 15.6 3.2 2.0 2.4 2.3 4.1 2.9 2.8 2.1 1.7 1.8 1.5 1.3 1.7 1.8 2.2 2.4 1.7 2.0 1.8 1.9 2.0 6.1 12.3 7.1 4.4 3.6 7.0 11.3 23.3 23.6 22.4 23.8 16.3 19.8 20.3 22.9 25.7
7.9 4.6 14.6 11.0 13.9 5.0 13.5 10.2 11.1 12.0 8.2 3.9 8.7 13.9 17.0 14.3 6.7 4.0 2.7 3.0 5.1 2.7 2.4 2.6 2.2 1.7 1.9 2.2 2.8 4.9 5.9 5.3 6.5 5.1 4.3 4.2 3.6 7.0 6.8 7.1 6.2 7.5 8.5 15.7 19.3 20.4 16.4 24.7 27.7 27.3 24.4 25.0 28.0 25.0
9.0 6.1 7.3 15.3 8.1 7.7 10.1 12.6 9.5 3.9 1.9 5.5 19.7 9.4 6.4 2.4 7.1 4.3 3.4 4.0 5.4 5.1 5.9 7.6 9.4 12.8 6.9 5.7 8.6 7.1 9.3 11.5 10.5 11.4 15.0 15.4 14.2 12.1 8.8 10.5 11.4 15.2 14.6 15.2 7.8 10.6 13.8 18.8 22.3 26.9 25.7 30.8 29.3 32.5
8.2 6.4 10.0 11.1 11.6 8.5 13.9 9.6 11.7 9.9 1.4 4.3 2.6 2.4 2.4 6.0 6.9 5.4 6.8 6.8 9.4 21.7 31.4 25.9 23.5 23.3 35.8 24.9 20.9 14.7 16.1 19.6 16.4 23.9 27.2 20.2 16.4 15.5 17.9 22.1 21.6 20.4 19.8 35.5 23.5 12.8 9.2 24.1 19.5 35.9 30.7 28.7 31.8 37.0
5.3 13.4 14.3 8.8 12.5 18.7 18.5 21.4 21.1 11.5 12.1 17.8 18.5 20.9 15.0 10.6 11.7 8.5 6.9 10.4 11.3 37.0 39.9 44.5 41.8 40.4 37.4 24.4 37.4 33.8 23.8 31.5 14.1 10.9 11.0 16.3 19.0 24.6 25.6 22.7 23.9 26.7 27.6 26.5 33.3 28.7 27.2 31.8 31.3 31.4 24.3 20.9 23.4 25.1
16.1 22.9 24.4 12.8 15.1 26.4 15.2 32.5 27.2 24.0 27.3 29.1 30.4 28.3 33.8 29.6 18.0 13.6 17.7 27.3 32.0 36.9 9.0 32.4 47.7 22.7 19.7 17.8 27.5 21.9 10.0 14.6 15.3 15.2 15.0 19.8 23.5 26.2 16.8 14.0 30.2 30.7 25.7 28.3 24.7 26.1 21.3 30.0 29.6 32.8 28.6 24.2 22.6 20.9
35.5 27.8 19.9 19.4 32.5 18.5 20.6 26.0 8.0 22.5 23.3 27.1 30.9 27.6 30.5 25.9 15.6 22.5 10.7 25.3 30.9 33.8 28.7 38.0 39.8 45.1 21.6 18.4 17.5 19.2 13.6 19.4 18.6 10.4 9.1 9.1 9.1 10.7 20.2 28.8 33.1 26.5 17.1 23.6 27.1 25.3 20.7 15.6 20.1 20.5 22.7 26.0 23.9 22.0
Water_Equivalent
nan nan nan nan nan nan nan nan nan nan nan nan nan nan nan nan nan 0.00 0.00 0.00 0.00 0.00 0.00 0.00 0.00 0.00 0.00 0.00 0.12 0.00 0.09 0.10 0.18 0.44 0.67 0.34 1.21 0.18 0.07 0.00 0.01 0.09 0.50 1.31 0.58 0.96 1.03 0.00 0.00 0.09 0.05 0.00 0.00 0.00
nan nan nan nan nan nan nan nan nan nan nan nan nan nan nan nan nan nan 0.00 0.00 0.00 0.00 0.00 0.00 0.00 0.00 0.00 0.00 0.00 0.00 0.01 0.00 0.02 0.12 0.62 0.64 1.37 1.71 0.10 0.46 0.00 0.23 0.10 0.15 0.03 0.19 0.00 0.00 0.00 0.00 0.00 0.00 0.00 0.00
nan nan nan nan nan nan nan nan nan nan nan nan nan nan nan nan nan nan 0.00 0.00 0.00 0.10 0.00 0.00 0.00 0.00 0.00 0.00 0.00 0.04 0.07 0.00 0.00 0.00 0.08 0.33 0.70 0.13 1.25 0.20 0.07 0.00 0.00 0.09 0.03 0.00 0.00 0.00 0.00 0.00 0.00 0.00 0.00 0.00
nan nan nan nan nan nan nan nan nan nan nan nan nan nan nan nan nan nan 0.00 0.00 0.00 0.03 1.05 0.08 0.00 0.00 0.00 0.00 0.00 0.00 0.00 0.00 0.00 0.02 0.41 0.74 1.28 0.00 0.42 0.17 0.14 0.01 0.01 0.00 0.00 0.00 0.00 0.00 0.00 0.00 0.00 0.00 0.00 0.00
nan nan nan nan nan nan nan nan nan nan nan nan nan nan nan nan nan nan 0.00 0.00 0.00 0.00 0.49 0.13 0.00 0.00 0.00 0.00 0.00 0.00 0.00 0.00 0.04 0.23 1.61 0.83 0.09 0.24 0.18 0.14 0.19 0.00 0.00 0.18 0.14 0.00 0.00 0.00 0.00 0.00 0.00 0.00 0.00 0.00
nan nan nan nan nan nan nan nan nan nan nan nan nan nan nan nan nan 0.00 0.00 0.00 0.00 0.00 0.14 0.61 0.00 0.00 0.00 0.00 0.00 0.00 0.00 0.00 0.00 0.03 0.79 0.08 0.00 0.10 1.86 0.24 0.00 0.00 0.00 0.00 0.00 0.00 0.00 0.00 0.00 0.00 0.00 0.00 0.00 0.00
nan nan nan nan nan nan nan nan nan nan nan nan nan nan nan nan 0.00 0.00 0.00 0.00 nan 0.00 0.16 0.68 0.21 0.05 0.00 0.00 0.00 0.00 0.00 0.00 0.00 0.07 0.23 0.11 0.10 0.01 0.82 0.37 0.00 0.00 0.00 0.00 0.00 0.00 0.00 0.00 0.00 0.00 0.00 0.00 0.00 0.00
nan nan nan nan nan nan nan nan nan nan nan nan nan nan nan nan nan 0.01 0.00 nan nan 0.00 0.07 0.65 0.59 0.29 0.00 0.15 0.39 0.00 0.09 0.09 0.02 0.00 0.25 0.23 0.10 0.30 0.38 0.00 0.00 0.00 0.00 0.00 0.00 0.00 0.00 0.00 0.00 0.00 0.00 0.00 0.00 0.00
nan nan nan nan nan nan nan nan nan nan nan nan nan nan 0.00 0.00 0.06 0.00 nan nan 0.00 0.01 0.21 1.89 0.87 1.59 0.00 0.05 0.25 0.15 0.02 0.74 0.02 0.65 0.30 0.11 0.32 0.45 0.00 0.00 0.00 0.00 0.00 0.00 0.00 0.00 0.00 0.00 0.00 0.00 0.00 0.00 0.02 0.14
nan nan nan nan nan nan nan nan nan nan nan nan 0.00 0.00 0.25 0.13 nan nan 0.01 0.13 0.14 0.14 0.12 0.76 0.10 0.54 0.01 0.28 0.48 0.33 0.35 0.80 0.72 0.65 0.01 0.80 0.17 0.00 0.00 0.00 0.00 0.00 0.00 0.00 0.00 0.01 0.00 0.00 0.00 0.00 0.02 0.00 0.04 0.03
nan nan nan nan nan nan nan nan nan nan nan 0.02 0.18 0.19 0.00 nan 0.00 0.06 0.26 0.27 0.14 0.59 0.09 0.17 0.15 0.15 0.07 0.62 0.78 0.37 1.14 1.01 1.17 0.26 0.77 0.55 0.27 0.00 0.00 0.00 0.00 0.00 0.00 0.00 0.00 0.00 0.00 0.00 0.03 0.10 0.04 0.01 0.01 0.02
nan nan nan nan nan nan nan nan nan 0.00 0.00 0.00 0.04 0.00 0.00 0.00 0.23 0.78 1.36 0.90 0.42 0.30 0.23 0.58 0.29 0.06 0.32 0.00 0.26 0.87 0.89 0.83 0.94 0.12 1.76 0.74 0.09 0.00 0.00 0.00 0.00 0.00 0.00 0.00 0.00 0.00 0.00 0.00 0.00 0.00 0.01 0.02 0.03 0.04
nan nan nan nan nan nan nan nan nan nan nan 0.00 0.11 0.24 0.12 1.49 4.83 2.11 1.47 1.25 2.19 0.69 1.11 1.06 2.59 0.35 0.34 0.12 1.05 0.74 1.84 1.55 0.24 1.72 0.35 0.25 0.03 0.02 0.03 0.00 0.00 0.00 0.00 0.00 0.00 0.00 0.00 0.00 0.00 0.02 0.08 0.04 0.25 0.05
nan nan nan nan nan nan nan nan nan 0.00 0.00 0.22 1.06 5.03 2.15 2.46 0.98 0.79 0.55 0.87 0.96 0.98 0.82 0.56 0.95 0.70 1.04 1.14 1.05 2.14 0.93 0.48 1.62 1.19 0.77 0.16 0.09 0.11 0.04 0.00 0.00 0.00 0.15 0.05 0.00 0.01 0.04 0.06 0.06 0.24 0.49 0.63 0.43 0.06
nan nan nan nan nan nan nan nan nan 0.00 0.05 0.28 0.55 3.23 1.46 0.74 0.75 0.99 1.07 0.87 0.45 0.37 0.51 0.75 0.70 0.17 1.38 2.10 1.11 0.97 1.86 1.70 0.85 0.96 0.56 0.35 0.12 0.05 0.01 0.00 0.00 0.03 0.27 0.14 0.00 0.05 0.39 0.27 0.12 0.06 0.13 0.07 0.06 0.47
nan nan 0.00 nan nan nan nan nan 0.00 0.00 0.22 0.31 0.47 1.16 0.93 1.75 2.82 3.02 2.17 1.96 0.24 0.40 0.46 0.47 0.79 1.37 1.36 1.29 1.13 1.26 0.84 0.80 1.08 0.56 0.29 0.08 0.04 0.02 0.02 0.02 0.02 0.01 0.02 0.01 0.01 0.02 0.09 0.25 0.30 0.03 0.08 0.19 0.75 0.76
nan 0.05 nan nan nan nan nan 0.00 0.14 0.06 0.59 0.62 1.94 0.81 1.33 1.44 1.89 1.71 1.21 0.50 0.02 0.90 2.68 0.84 1.27 0.69 0.40 0.94 0.63 0.41 1.70 0.84 0.48 0.18 0.09 0.01 0.02 0.01 0.01 0.02 0.33 0.04 0.01 0.02 0.01 0.02 0.02 0.05 0.14 0.13 0.21 0.02 0.03 0.09
0.04 0.00 nan nan nan nan 0.00 0.03 0.35 0.34 0.39 0.39 1.61 1.23 0.77 0.80 1.25 1.36 0.81 0.29 0.41 0.26 0.34 0.25 0.22 0.63 1.95 0.80 1.02 0.56 0.31 0.23 0.13 0.19 0.08 0.03 0.00 0.01 0.00 0.00 0.00 0.00 0.01 0.02 0.07 0.03 0.04 0.25 0.09 0.14 0.02 0.02 0.06 0.08
0.00 0.00 nan nan 0.00 0.12 0.25 0.22 0.10 0.36 0.65 0.38 0.33 0.35 0.45 0.83 0.48 0.28 0.85 0.56 0.22 0.14 0.42 0.54 1.15 0.64 0.89 0.37 0.71 0.66 0.54 0.29 0.13 0.05 0.04 0.01 0.02 0.02 0.01 0.01 0.01 0.01 0.02 0.02 0.02 0.10 0.08 0.02 0.07 0.09 0.11 0.15 0.27 0.30
nan nan nan nan nan 0.19 0.14 0.54 0.09 0.12 0.39 0.28 0.35 0.38 0.37 0.41 0.74 2.10 1.75 0.70 0.34 0.55 0.74 0.68 0.52 0.40 0.27 0.18 0.11 0.17 0.11 0.10 0.10 0.17 0.12 0.06 0.06 0.00 0.01 0.03 0.09 0.02 0.07 0.02 0.13 0.05 0.18 0.15 0.12 0.19 0.20 0.23 0.60 0.71
nan nan nan 0.00 0.18 0.00 0.21 0.25 0.15 0.19 0.15 0.19 0.23 0.20 0.66 0.67 1.04 1.52 1.20 0.36 2.04 0.67 0.38 0.25 0.62 0.14 0.05 0.10 0.09 0.09 0.07 0.05 0.07 0.23 0.20 0.12 0.08 0.09 0.09 0.10 0.13 0.13 0.18 0.21 0.77 0.42 0.34 0.40 0.22 0.25 2.22 2.64 1.71 1.32
0.00 nan 0.32 0.29 0.63 0.58 0.62 0.15 0.19 0.19 0.41 0.37 0.39 0.28 1.26 2.96 2.73 1.64 0.42 1.24 0.43 0.19 0.07 0.15 0.09 0.09 0.07 0.03 0.04 0.01 0.01 0.01 0.00 0.08 0.03 0.06 0.18 0.16 0.16 0.15 0.23 0.44 0.38 0.68 0.41 0.99 0.55 0.28 0.57 0.74 1.65 2.65 1.11 1.23
nan 0.26 0.91 0.79 1.44 2.04 2.82 0.17 0.89 0.16 1.15 0.93 0.64 0.72 1.37 1.23 0.71 0.19 1.34 0.16 0.23 0.06 0.06 0.06 0.05 0.03 0.04 0.02 0.01 0.00 0.00 0.00 0.10 0.16 0.25 0.20 0.15 0.36 0.37 0.27 0.35 1.00 0.75 0.29 0.25 0.56 0.74 0.82 0.94 2.37 1.72 1.75 1.72 3.53
nan 1.33 1.74 1.67 1.77 3.05 1.52 1.95 0.33 0.53 0.71 1.02 1.08 1.02 0.18 0.61 0.40 1.11 1.02 0.68 0.19 0.14 0.14 0.06 0.11 0.18 0.16 0.06 0.11 0.09 0.07 0.08 0.11 0.16 0.23 0.26 0.28 0.23 0.23 0.25 0.46 0.49 0.33 0.26 0.51 0.92 0.91 2.43 2.15 1.15 2.63 4.72 5.65 4.63
2.58 3.41 2.62 4.10 1.91 2.81 2.25 2.28 1.21 0.91 1.30 1.46 1.13 1.20 2.12 0.58 1.41 1.24 0.58 0.50 0.53 0.70 0.49 0.39 0.24 0.19 0.19 0.34 0.23 0.16 0.04 0.10 0.20 0.22 0.27 0.28 0.47 0.52 0.33 0.22 0.27 0.31 0.51 1.92 2.37 3.16 3.15 3.03 3.21 3.04 1.86 5.23 1.73 2.18
4.46 4.06 3.49 1.85 2.77 1.79 1.09 1.66 1.72 2.10 1.31 1.49 1.55 0.87 1.50 1.71 1.34 1.19 0.33 0.77 1.30 0.71 2.97 2.11 1.05 0.38 0.20 0.14 0.16 0.18 0.17 0.20 0.24 0.28 0.24 0.22 0.30 1.07 1.36 1.11 0.87 0.74 0.72 1.54 2.51 3.94 2.86 3.18 3.57 1.83 3.30 1.98 2.40 4.34
3.85 3.73 0.68 0.20 0.37 0.33 2.29 2.18 0.84 1.53 1.47 1.65 1.31 1.71 1.98 2.27 1.94 0.47 0.30 0.33 0.32 0.61 0.41 0.42 0.34 0.27 0.25 0.20 0.19 0.30 0.31 0.38 0.42 0.29 0.36 0.32 0.34 0.35 1.01 1.98 1.11 0.74 0.68 1.43 2.29 4.56 4.42 4.12 4.37 2.87 3.47 3.78 4.15 4.44
1.26 0.80 1.61 1.87 2.21 0.82 1.76 1.33 1.51 1.57 1.24 0.59 1.19 1.65 2.08 1.80 0.83 0.58 0.34 0.41 0.80 0.41 0.38 0.44 0.39 0.28 0.31 0.35 0.44 0.71 0.91 0.84 1.10 0.88 0.74 0.71 0.63 1.14 1.09 1.22 1.10 2.48 1.57 2.99 3.78 3.97 3.10 4.65 4.97 4.86 4.19 4.20 4.57 4.27
1.35 1.04 1.22 1.63 1.05 1.18 1.37 1.65 1.33 0.62 0.31 0.87 2.85 1.28 1.00 0.37 1.02 0.62 0.45 0.56 0.84 0.80 0.88 1.10 1.40 2.06 1.12 0.92 1.35 1.06 1.38 1.66 1.47 1.45 2.04 2.04 2.09 1.76 1.29 1.58 1.72 2.27 2.18 2.35 2.58 2.67 2.63 3.28 3.84 4.35 4.48 4.92 4.67 5.03
1.17 1.13 1.54 1.43 1.22 1.05 2.28 1.64 2.09 1.80 0.24 0.79 0.49 0.40 0.38 0.83 0.94 0.75 0.98 0.97 1.34 3.22 4.90 3.88 3.55 3.44 4.87 3.44 2.84 2.07 2.40 3.12 2.52 3.44 3.71 2.69 2.24 2.17 2.56 3.24 3.22 3.13 3.09 5.67 3.25 1.54 2.49 3.39 3.76 4.86 4.11 3.73 4.08 4.33
0.93 2.27 2.32 1.48 1.74 3.22 3.09 3.70 3.76 1.97 2.12 3.21 3.35 3.59 2.27 1.46 1.58 1.12 0.93 1.38 1.54 5.68 6.15 6.39 6.16 6.45 5.04 3.11 5.17 4.59 2.98 4.80 1.93 1.45 1.46 2.23 2.66 3.62 3.86 3.36 3.57 4.04 4.20 3.85 4.74 3.37 3.09 3.82 4.13 4.13 2.93 2.58 2.57 2.70
2.58 3.74 2.88 1.56 2.35 4.59 2.59 5.59 4.53 3.99 4.93 4.58 5.10 4.46 4.94 3.95 2.20 1.63 1.87 3.11 3.99 4.78 2.60 3.93 5.94 2.67 2.56 2.35 4.01 3.13 3.07 1.87 1.91 1.88 1.99 2.64 3.32 3.81 2.43 2.01 4.59 4.68 3.78 4.05 3.38 3.44 2.78 3.53 3.34 3.72 3.15 2.74 2.46 2.20
5.64 4.15 2.74 2.40 4.76 2.87 3.25 4.15 1.26 3.66 3.30 3.75 4.32 3.84 3.99 3.18 1.83 2.37 1.11 2.81 3.50 3.84 3.17 4.43 4.71 5.66 2.85 2.43 2.23 2.48 2.91 2.17 2.67 3.43 3.01 3.01 2.99 2.89 2.73 4.08 4.90 3.76 2.31 3.18 3.56 3.16 2.69 2.00 2.12 2.38 2.43 2.76 2.50 2.27
SL_Ratio
nan nan nan nan nan nan nan nan nan nan nan nan nan nan nan nan nan nan nan nan nan 4.0 nan nan nan nan nan 2.0 3.4 nan 3.3 3.3 3.2 3.6 4.1 4.2 4.2 4.5 4.6 5.0 4.9 4.8 4.8 4.8 4.6 4.8 5.2 nan nan 4.4 4.0 nan nan nan
nan nan nan nan nan nan nan nan nan nan nan nan nan nan nan nan nan nan nan nan nan nan 3.3 nan nan nan nan nan nan nan 3.1 nan 3.1 3.2 3.5 3.8 4.0 3.5 4.4 4.8 nan 4.6 4.2 4.6 4.5 4.7 nan nan nan nan nan nan nan nan
nan nan nan nan nan nan nan nan nan nan nan nan nan nan nan nan nan nan nan nan nan 3.1 3.8 nan nan nan nan nan nan 3.2 3.2 nan 2.9 nan 3.4 3.3 3.8 3.7 3.8 3.7 3.9 nan nan 3.9 3.8 nan nan nan nan nan nan nan nan nan
nan nan nan nan nan nan nan nan nan nan nan nan nan nan nan nan nan nan nan nan nan 3.2 3.1 3.1 nan nan nan nan nan nan nan nan nan 3.1 3.2 3.2 3.7 nan 3.6 3.6 3.6 3.3 3.2 3.3 4.4 nan nan nan nan nan nan nan nan nan
nan nan nan nan nan nan nan nan nan nan nan nan nan nan nan nan nan nan nan nan nan nan 3.3 3.2 nan nan nan nan nan nan nan nan 3.2 3.1 3.1 3.2 3.5 3.4 3.2 3.3 3.4 nan 4.0 3.5 3.4 nan nan nan nan nan nan nan nan nan
nan nan nan nan nan nan nan nan nan nan nan nan nan nan nan nan nan nan nan nan nan nan 3.1 3.1 2.7 nan nan nan nan nan nan nan nan 3.1 3.1 3.1 nan 3.3 3.1 3.2 nan nan nan nan nan nan nan nan nan nan nan nan nan nan
nan nan nan nan nan nan nan nan nan nan nan nan nan nan nan nan nan nan nan nan nan nan 3.1 3.1 3.2 3.1 nan nan nan nan nan nan nan 3.1 3.1 3.2 3.1 3.5 3.2 3.3 nan nan nan nan nan nan nan nan nan nan nan nan nan nan
nan nan nan nan nan nan nan nan nan nan nan nan nan nan nan nan nan 3.1 nan nan nan nan 3.1 3.3 3.3 3.2 nan 3.1 3.1 nan 3.1 3.2 3.2 nan 3.1 3.1 3.1 3.1 3.1 nan nan nan nan nan nan nan nan nan nan nan nan nan nan nan
nan nan nan nan nan nan nan nan nan nan nan nan nan nan nan nan 3.2 3.3 nan nan nan 3.2 3.1 3.2 3.4 3.6 nan 3.2 3.1 3.3 3.2 3.1 3.2 3.1 3.1 3.2 3.1 3.2 2.0 nan nan nan nan nan nan nan nan nan nan nan nan nan 4.4 4.6
nan nan nan nan nan nan nan nan nan nan nan nan nan 3.6 3.1 3.2 nan nan 3.1 3.1 3.1 3.1 3.1 3.1 3.1 3.1 2.9 3.1 3.1 3.1 3.1 3.2 3.7 3.2 3.6 3.1 3.3 nan nan nan nan nan nan nan nan 2.9 nan nan nan 6.0 5.4 5.0 4.3 4.9
nan nan nan nan nan nan nan nan nan nan nan 3.2 3.1 3.2 nan nan nan 3.1 3.2 3.3 3.1 3.2 3.2 3.2 3.1 3.2 3.1 3.1 3.1 3.2 3.6 3.6 4.6 4.4 3.8 4.6 5.0 nan nan nan nan nan nan nan nan nan nan nan 4.7 4.1 4.9 3.9 4.2 4.5
nan nan nan nan nan nan nan nan nan nan nan nan 3.1 nan 3.3 nan 3.2 2.9 3.5 3.5 3.6 3.9 3.4 3.2 3.1 3.1 3.1 nan 3.2 3.6 4.2 4.3 5.1 3.9 4.2 5.4 5.0 nan nan nan nan nan nan nan nan nan 3.3 nan nan 4.3 4.3 4.8 4.9 5.0
nan nan nan nan nan nan nan nan nan nan nan nan 3.1 3.3 2.8 3.6 5.4 4.1 4.9 4.3 3.8 3.2 3.1 3.1 3.2 3.1 3.1 3.1 3.5 3.6 4.8 5.3 3.8 5.0 5.3 5.7 5.7 5.3 3.8 nan nan nan 2.5 3.8 nan nan nan nan 5.0 4.9 5.0 4.9 5.0 5.1
nan nan nan nan nan nan nan nan nan nan nan 3.4 3.6 5.8 4.2 4.9 5.1 5.1 4.7 4.0 3.7 3.1 3.1 3.1 3.4 3.7 3.7 3.8 4.7 4.9 5.4 4.9 5.7 5.8 5.7 5.2 4.8 5.4 5.6 nan nan nan 5.2 5.0 4.4 4.4 4.7 5.0 5.2 5.5 5.4 5.5 5.8 5.3
nan nan nan nan nan nan nan nan nan nan 3.2 3.8 4.0 7.5 5.4 4.9 4.6 4.0 3.2 3.2 3.3 3.1 3.1 3.6 4.0 3.7 4.8 5.0 5.1 5.5 5.7 5.9 5.8 5.9 5.8 4.8 5.2 5.3 5.4 nan nan 4.5 5.3 5.6 3.3 5.0 5.4 5.4 5.2 5.0 5.1 5.1 5.2 5.8
nan nan 3.3 nan nan nan nan nan nan nan 4.1 4.4 4.7 5.1 4.6 4.6 4.7 3.7 3.4 3.4 3.2 3.3 3.7 3.8 5.3 5.4 5.5 5.4 5.4 5.6 6.0 6.5 5.8 5.0 4.4 4.3 5.3 4.7 4.1 3.9 4.0 4.0 4.5 4.7 4.5 4.8 5.3 5.6 5.4 4.7 4.9 5.1 5.5 5.5
nan 3.2 nan nan nan nan nan nan 3.2 4.3 4.6 4.8 5.2 3.9 3.9 4.0 4.2 3.9 3.6 3.7 3.1 3.7 4.9 4.9 5.6 5.8 5.3 5.8 6.2 5.6 5.8 5.2 4.4 4.1 4.1 4.0 3.9 4.1 3.9 4.2 5.4 5.3 4.5 4.7 4.9 4.9 4.9 5.2 5.3 5.4 5.5 4.8 5.1 5.3
3.2 nan nan nan nan nan nan 3.9 4.4 4.6 5.3 5.1 5.6 5.0 4.7 4.3 3.8 3.8 3.7 3.7 3.5 4.6 4.8 5.1 4.9 5.6 5.8 6.3 6.3 5.3 5.1 4.4 4.3 4.7 4.5 3.7 4.2 3.8 10.0 nan nan 5.0 4.8 4.8 5.1 4.9 5.1 5.6 5.5 5.0 5.1 5.1 5.3 5.2
nan nan nan nan nan 4.2 4.3 4.6 4.4 5.2 5.5 5.0 5.2 5.0 4.9 4.7 4.8 4.4 3.8 4.1 4.2 4.3 4.7 4.9 5.2 5.8 5.6 5.2 5.0 4.9 4.7 4.9 4.8 4.6 4.7 6.1 4.8 4.7 4.7 4.6 4.5 4.7 4.8 4.7 4.5 4.7 4.8 5.0 4.8 4.6 4.8 5.1 5.2 5.1
nan nan nan nan nan 4.5 5.0 5.0 4.6 4.9 5.2 5.4 4.9 5.1 5.1 5.2 4.9 4.1 3.9 4.1 4.4 4.6 5.1 5.4 5.3 5.0 5.0 4.8 4.8 4.7 4.7 4.7 4.8 4.9 4.9 4.6 4.6 4.6 5.0 4.6 4.4 4.4 4.5 4.6 4.9 4.8 5.0 5.0 4.9 5.0 5.2 5.2 5.2 5.1
nan nan nan nan 3.8 4.0 4.7 4.9 4.7 4.9 5.0 5.1 5.1 5.0 5.6 5.0 5.2 5.2 5.0 4.6 5.0 5.3 5.3 5.1 5.1 4.8 4.8 4.7 4.6 4.6 4.6 4.6 4.7 4.8 4.8 5.1 4.6 4.7 4.7 4.6 4.6 4.7 5.0 5.0 5.1 5.0 5.1 5.2 4.9 4.6 4.3 4.3 4.3 4.3
nan nan 3.4 3.4 4.4 4.5 5.4 4.6 5.0 5.0 5.4 5.0 5.2 5.0 5.4 5.6 5.9 5.8 5.0 5.3 5.3 5.2 5.1 5.0 4.8 4.7 4.7 4.9 4.7 5.0 4.8 4.7 5.0 4.8 4.8 4.8 5.3 5.1 5.0 4.9 5.0 5.2 5.2 4.9 4.9 4.7 4.7 4.5 4.4 4.3 4.2 4.1 4.6 4.8
nan 4.0 4.0 4.3 5.2 6.5 8.1 4.5 5.4 5.2 5.9 5.6 5.4 5.6 5.8 5.7 5.4 5.1 5.9 5.2 5.3 5.1 5.2 5.3 6.8 6.8 6.2 6.9 5.1 4.6 5.0 4.7 4.9 5.1 5.1 5.1 5.1 5.1 5.1 5.2 5.2 5.0 5.1 4.9 4.9 4.7 4.7 3.3 4.2 4.4 4.4 4.7 4.9 5.0
nan 5.1 5.5 5.8 6.2 8.1 5.2 6.2 5.2 5.5 5.4 5.8 5.9 6.2 5.7 5.5 5.6 6.0 6.6 5.8 5.7 5.1 5.4 6.9 6.1 6.5 6.4 7.6 6.1 5.9 5.1 4.9 5.0 5.1 5.0 5.2 5.2 5.3 5.2 5.2 5.0 5.0 4.9 4.6 4.6 4.5 4.7 4.5 3.4 5.3 5.2 5.1 5.3 5.5
6.7 7.1 5.8 9.2 5.6 6.4 6.6 6.3 6.3 6.1 7.0 6.4 6.7 6.3 6.2 5.7 6.8 6.8 6.8 6.3 5.9 5.7 5.9 5.8 6.0 6.2 6.8 6.3 6.3 6.3 6.6 5.1 5.4 5.5 5.4 5.2 5.2 5.2 5.2 5.1 5.2 5.2 4.7 4.8 4.9 4.9 4.8 4.8 5.0 5.2 5.6 5.3 5.8 5.9
8.4 5.7 8.6 5.9 6.7 6.4 6.8 7.8 7.6 7.2 7.0 7.7 6.4 6.1 5.7 6.2 7.4 8.0 6.6 6.0 5.8 6.1 5.5 5.5 5.6 6.1 6.7 6.8 6.9 6.7 6.1 5.6 5.3 5.4 5.5 5.3 5.5 5.6 5.7 5.8 5.9 5.3 5.4 5.0 5.1 5.2 5.2 5.3 5.4 5.7 5.6 5.5 3.7 5.8
8.9 7.2 5.7 5.3 5.7 6.2 6.9 6.1 5.9 6.5 7.8 8.4 6.5 7.0 6.8 9.1 8.1 6.8 6.7 7.1 7.3 6.7 7.0 6.7 6.2 6.4 7.2 7.5 6.7 5.8 5.7 5.7 5.9 5.8 5.6 5.6 5.7 5.7 6.0 6.2 6.4 5.9 5.2 4.9 4.9 5.1 5.3 5.4 5.4 5.7 5.7 5.4 5.5 5.8
6.3 5.8 9.1 5.9 6.3 6.0 7.7 7.7 7.4 7.6 6.6 6.6 7.3 8.4 8.2 7.9 8.1 7.0 7.9 7.3 6.4 6.7 6.2 5.8 5.7 5.9 6.1 6.3 6.3 7.0 6.5 6.3 5.9 5.8 5.8 5.9 5.7 6.2 6.3 5.8 5.7 3.0 5.4 5.3 5.1 5.1 5.3 5.3 5.6 5.6 5.8 6.0 6.1 5.9
6.7 5.8 6.0 9.4 7.7 6.5 7.4 7.6 7.2 6.4 6.3 6.3 6.9 7.3 6.4 6.6 7.0 7.0 7.5 7.1 6.4 6.3 6.8 6.9 6.7 6.2 6.1 6.2 6.3 6.6 6.7 6.9 7.1 7.9 7.3 7.5 6.8 6.9 6.8 6.6 6.6 6.7 6.7 6.5 3.0 4.0 5.2 5.7 5.8 6.2 5.7 6.3 6.3 6.5
7.0 5.7 6.5 7.8 9.5 8.1 6.1 5.9 5.6 5.5 5.8 5.4 5.5 5.9 6.4 7.2 7.3 7.2 7.0 7.0 7.0 6.7 6.4 6.7 6.6 6.8 7.3 7.2 7.4 7.1 6.7 6.3 6.5 6.9 7.3 7.5 7.3 7.2 7.0 6.8 6.7 6.5 6.4 6.3 7.2 8.3 3.7 7.1 5.2 7.4 7.5 7.7 7.8 8.5
5.7 5.9 6.2 6.0 7.2 5.8 6.0 5.8 5.6 5.8 5.7 5.5 5.5 5.8 6.6 7.2 7.4 7.6 7.5 7.5 7.3 6.5 6.5 7.0 6.8 6.3 7.4 7.8 7.2 7.4 8.0 6.5 7.3 7.5 7.5 7.3 7.2 6.8 6.6 6.8 6.7 6.6 6.6 6.9 7.0 8.5 8.8 8.3 7.6 7.6 8.3 8.1 9.1 9.3
6.2 6.1 8.5 8.2 6.4 5.7 5.9 5.8 6.0 6.0 5.5 6.3 6.0 6.3 6.8 7.5 8.2 8.4 9.4 8.8 8.0 7.7 3.5 8.2 8.0 8.5 7.7 7.6 6.9 7.0 3.3 7.8 8.0 8.1 7.6 7.5 7.1 6.9 6.9 7.0 6.6 6.6 6.8 7.0 7.3 7.6 7.7 8.5 8.9 8.8 9.1 8.8 9.2 9.5
6.3 6.7 7.3 8.1 6.8 6.5 6.3 6.3 6.3 6.1 7.1 7.2 7.1 7.2 7.7 8.2 8.5 9.5 9.6 9.0 8.8 8.8 9.1 8.6 8.4 8.0 7.6 7.6 7.9 7.7 4.7 8.9 7.0 3.0 3.0 3.0 3.0 3.7 7.4 7.1 6.8 7.0 7.4 7.4 7.6 8.0 7.7 7.8 9.5 8.6 9.4 9.4 9.6 9.7